TimePDT,TemperatureF,Dew PointF,Humidity,Sea Level PressureIn,VisibilityMPH,Wind Direction,Wind SpeedMPH,Gust SpeedMPH,PrecipitationIn,Events,Conditions,WindDirDegrees,DateUTC
12:00 AM,-3.1,-8.0,80,30.19,-9999.0,ENE,1.2,-,N/A,,Unknown,60,2012-10-28 07:00:00
1:00 AM,-4.0,-9.0,79,30.19,-9999.0,ENE,3.5,-,N/A,,Unknown,60,2012-10-28 08:00:00
2:00 AM,-4.9,-9.6,80,30.19,-9999.0,NE,2.3,-,N/A,,Unknown,50,2012-10-28 09:00:00
3:00 AM,-6.9,-11.4,81,30.19,-9999.0,NNE,2.3,-,N/A,,Unknown,20,2012-10-28 10:00:00
4:00 AM,-11.2,-16.1,79,30.19,-9999.0,ENE,2.3,-,N/A,,Unknown,70,2012-10-28 11:00:00
5:00 AM,-9,-13,75,30.18,,ENE,2.3,,,,,60,2012-10-28 12:00:00
5:00 AM,-8.7,-12.6,83,30.18,-9999.0,ENE,2.3,-,N/A,,Unknown,60,2012-10-28 12:00:00
6:00 AM,-6.5,-10.5,83,30.18,-9999.0,NE,2.3,-,N/A,,Unknown,50,2012-10-28 13:00:00
7:00 AM,-5.6,-10.1,81,30.19,-9999.0,ENE,2.3,-,N/A,,Unknown,70,2012-10-28 14:00:00
8:00 AM,-5.3,-10.3,79,30.20,-9999.0,East,2.3,-,N/A,,Unknown,90,2012-10-28 15:00:00
9:00 AM,-5.3,-10.7,77,30.21,-9999.0,ENE,1.2,-,N/A,,Unknown,60,2012-10-28 16:00:00
10:00 AM,-5.4,-11.2,76,30.22,-9999.0,East,3.5,-,N/A,,Unknown,80,2012-10-28 17:00:00
11:00 AM,-2,-6,74,30.22,,Calm,Calm,,,,,,2012-10-28 18:00:00
11:00 AM,-2.0,-6.2,83,30.22,-9999.0,Calm,Calm,-,N/A,,Unknown,0,2012-10-28 18:00:00
12:00 PM,1.2,-2.7,83,30.21,-9999.0,SW,2.3,-,N/A,,Unknown,230,2012-10-28 19:00:00
1:00 PM,4.6,-0.6,79,30.19,-9999.0,WSW,2.3,-,N/A,,Unknown,240,2012-10-28 20:00:00
2:00 PM,7.0,0.5,75,30.18,-9999.0,SW,2.3,-,N/A,,Unknown,220,2012-10-28 21:00:00
3:00 PM,10.0,1.0,67,30.18,-9999.0,South,1.2,-,N/A,,Unknown,170,2012-10-28 22:00:00
4:00 PM,11.3,-2.0,55,30.17,-9999.0,ENE,1.2,-,N/A,,Unknown,70,2012-10-28 23:00:00
5:00 PM,11,-2,40,30.16,,North,4.6,,,,,350,2012-10-29 00:00:00
5:00 PM,10.8,-2.0,56,30.16,-9999.0,North,4.6,-,N/A,,Unknown,350,2012-10-29 00:00:00
6:00 PM,10.0,-1.5,60,30.16,-9999.0,North,3.5,-,N/A,,Unknown,360,2012-10-29 01:00:00
7:00 PM,5.9,-2.6,68,30.17,-9999.0,NNE,3.5,-,N/A,,Unknown,30,2012-10-29 02:00:00
8:00 PM,0.9,-4.7,77,30.19,-9999.0,NNE,1.2,-,N/A,,Unknown,30,2012-10-29 03:00:00
9:00 PM,-0.9,-6.9,76,30.21,-9999.0,East,3.5,-,N/A,,Unknown,80,2012-10-29 04:00:00
10:00 PM,-2.9,-7.6,80,30.21,-9999.0,East,3.5,-,N/A,,Unknown,80,2012-10-29 05:00:00
11:00 PM,-5,-8,77,30.21,,NE,2.3,,,,,50,2012-10-29 06:00:00
11:00 PM,-4.5,-8.5,83,30.21,-9999.0,NE,2.3,-,N/A,,Unknown,50,2012-10-29 06:00:00